NATIONAL KEY DEER NWR FL US current weather conditions

sailwx.info

Wind from 350 at 5 knots gusting 9

Air temperature 23.3° C
Dewpoint 17.3° C

Last reported at 2014-Oct-26 00:38 UTC.
Time now 2014-Oct-26 01:13 UTC

Location: N 24°43' W 081°23'.
View on Google Maps.

See reports from other nearby stations

  
Tides and Currents Weather Stations Pressure Air Temp Water Temp Dewpoint Dewpoint Depression Visibility Wind Speed Wind Dir Waves Ship Positions
date/time (UTC)wind fromknots sea level pressurealtimeterstation pressurevisibilityair tempwater tempwave heightnotes
2014-Oct-26 00:38 350 5 gusting 9 23.3
2014-Oct-25 23:38 348 4 gusting 9 23.3
2014-Oct-25 22:38 352 5 gusting 11 24.4
2014-Oct-25 21:38 351 6 gusting 13 26.7
2014-Oct-25 20:38 357 6 gusting 13 27.2
2014-Oct-25 19:38 001 8 gusting 14 27.2
2014-Oct-25 18:38 005 8 gusting 14 27.2
2014-Oct-25 17:38 006 6 gusting 13 27.2
2014-Oct-25 16:38 009 7 gusting 15 26.1
2014-Oct-25 15:38 011 7 gusting 13 26.1
2014-Oct-25 14:38 014 7 gusting 14 25.6
2014-Oct-25 13:38 010 7 gusting 15 25.0
2014-Oct-25 12:38 011 7 gusting 13 24.4
2014-Oct-25 11:38 018 6 gusting 19 23.3
2014-Oct-25 10:38 013 8 gusting 15 23.3
2014-Oct-25 09:38 020 7 gusting 15 23.3
2014-Oct-25 08:38 025 7 gusting 17 23.9
2014-Oct-25 07:38 020 8 gusting 15 23.9
2014-Oct-25 06:38 018 9 gusting 17 23.9
2014-Oct-25 05:38 015 8 gusting 16 23.9
2014-Oct-25 04:38 016 7 gusting 18 24.4
2014-Oct-25 03:38 020 8 gusting 18 24.4
2014-Oct-25 02:38 025 7 gusting 15 25.0
2014-Oct-25 01:38 029 7 gusting 15 25.6
2014-Oct-25 00:38 022 6 gusting 15 25.6
2014-Oct-24 23:38 028 6 gusting 17 25.6
2014-Oct-24 22:38 028 9 gusting 19 25.6
2014-Oct-24 21:38 035 7 gusting 17 27.2
2014-Oct-24 20:38 033 10 gusting 19 27.8
2014-Oct-24 19:38 020 7 gusting 15 26.7
2014-Oct-24 18:38 035 9 gusting 21 26.1
2014-Oct-24 17:38 017 7 gusting 13 26.7
2014-Oct-24 16:38 024 6 gusting 13 26.1
2014-Oct-24 15:38 022 6 gusting 13 24.4
2014-Oct-24 13:38 049 7 gusting 15 25.0
2014-Oct-24 12:38 047 8 gusting 16 24.4
2014-Oct-24 11:38 034 7 gusting 14 23.9
2014-Oct-24 10:38 030 7 gusting 14 23.9
2014-Oct-24 09:38 040 8 gusting 15 23.9
2014-Oct-24 08:38 044 8 gusting 17 23.9
2014-Oct-24 07:38 043 8 gusting 15 24.4
2014-Oct-24 06:38 049 8 gusting 17 24.4
2014-Oct-24 05:38 054 10 gusting 16 24.4
2014-Oct-24 04:38 055 7 gusting 13 24.4
2014-Oct-24 03:38 062 7 gusting 15 24.4
2014-Oct-24 02:38 065 8 gusting 15 24.4
2014-Oct-24 01:38 062 9 gusting 19 24.4